{"data":{"norad_id":61981,"epoch":"2026-09-21T09:51:14.832576Z","epoch_age_seconds":106805,"freshness":"FRESH","line1":"1 61981U 24210Y   26264.41058834  .00007786  00000+0  29207-3 0  9997","line2":"2 61981  43.0018 154.4352 0001200 283.2091  76.8627 15.27592223104813","mean_motion":15.27592223,"eccentricity":0.00012,"inclination_deg":43.0018,"raan_deg":154.4352,"arg_perigee_deg":283.2091,"mean_anomaly_deg":76.8627,"bstar":0.00029207,"rev_number":10481,"period_min":94.265994440062,"perigee_km":482.18915828495,"apogee_km":483.83583416404,"semimajor_km":6861.1494962245,"source":"CELESTRAK","updated_at":"2026-09-22T09:00:49.481643Z"}}